KD2BVA Weather Reports


time (UTC)temp
C
wind
direction
speed
KPH
gust
KPH
rain 1hr
cm
rain 24hr
cm
rain mn
cm
humidity
%
barometer
mb
20260504141035 13 261 1.6 6.4 0.00 0.00 0.00 56 993.7
20260504140546 13 254 1.6 6.4 0.00 0.00 0.00 56 993.9
20260504130527 10 242 1.6 4.8 0.00 0.00 0.00 64 993.8
20260504050538 8 278 0.0 1.6 0.00 0.00 0.00 74 995.0
20260504045526 8 273 0.0 3.2 0.00 0.00 0.00 74 995.0
20260504045036 8 219 0.0 8.0 0.00 0.00 0.00 74 995.1
20260504044526 7 236 1.6 8.0 0.00 0.00 0.00 74 995.2
20260504044027 7 238 0.0 4.8 0.00 0.00 0.00 74 995.2
20260504043539 7 239 0.0 4.8 0.00 0.00 0.00 74 995.2
20260504043047 7 231 0.0 3.2 0.00 0.00 0.00 73 995.2
20260504042529 7 252 0.0 1.6 0.00 0.00 0.00 73 995.4
20260504042036 7 259 0.0 0.0 0.00 0.00 0.00 73 995.4
20260504041545 7 259 0.0 3.2 0.00 0.00 0.00 72 995.4
20260504041026 7 99 0.0 0.0 0.00 0.00 0.00 72 995.4
20260504040538 7 266 0.0 0.0 0.00 0.00 0.00 71 995.4
20260504040046 7 266 0.0 0.0 0.00 0.00 0.00 70 995.5
20260504035527 7 266 0.0 3.2 0.00 0.00 0.00 70 995.4
20260504035037 6 266 1.6 3.2 0.00 0.00 0.00 70 995.5
20260504034538 6 235 0.0 0.0 0.00 0.00 0.00 68 995.4
20260504034027 7 235 0.0 0.0 0.00 0.00 0.00 66 995.3
20260504033539 7 235 0.0 1.6 0.00 0.00 0.00 65 995.3
20260504033038 7 235 0.0 1.6 0.00 0.00 0.00 64 995.3
20260504032527 7 235 0.0 1.6 0.00 0.00 0.00 63 995.3
20260504032038 7 235 0.0 1.6 0.00 0.00 0.00 62 995.3
20260504031539 7 235 0.0 1.6 0.00 0.00 0.00 62 995.2
20260504031026 7 277 0.0 4.8 0.00 0.00 0.00 62 995.2
20260504030528 7 254 1.6 4.8 0.00 0.00 0.00 62 995.2
20260504030036 6 222 0.0 1.6 0.00 0.00 0.00 60 995.2
20260504025526 6 238 0.0 1.6 0.00 0.00 0.00 60 995.2
20260504025025 6 264 0.0 1.6 0.00 0.00 0.00 59 995.1
20260504024529 5 264 0.0 1.6 0.00 0.00 0.00 59 995.1
20260504024039 5 264 0.0 0.0 0.00 0.00 0.00 59 995.1
20260504023550 5 264 0.0 0.0 0.00 0.00 0.00 59 995.1
20260504023028 5 264 0.0 0.0 0.00 0.00 0.00 59 995.1
20260504022537 5 264 0.0 0.0 0.00 0.00 0.00 59 995.2
20260504022047 5 264 0.0 0.0 0.00 0.00 0.00 59 995.1
20260504021526 5 264 0.0 0.0 0.00 0.00 0.00 59 995.0
20260504021037 5 264 0.0 0.0 0.00 0.00 0.00 57 995.1
20260504020536 5 264 0.0 0.0 0.00 0.00 0.00 58 995.1
20260504020024 6 264 0.0 0.0 0.00 0.00 0.00 55 995.1
20260504015534 6 264 0.0 0.0 0.00 0.00 0.00 54 995.1
20260504015102 6 264 0.0 0.0 0.00 0.00 0.00 53 995.2
20260504014609 6 264 0.0 0.0 0.00 0.00 0.00 53 995.2
20260504014057 7 264 0.0 1.6 0.00 0.00 0.00 51 995.2
20260504013603 7 264 0.0 1.6 0.00 0.00 0.00 50 995.1
20260504013108 7 264 0.0 1.6 0.00 0.00 0.00 51 995.1
20260504012544 7 264 0.0 3.2 0.00 0.00 0.00 50 995.1
20260504012101 7 264 0.0 3.2 0.00 0.00 0.00 49 995.1
20260504011608 7 326 0.0 0.0 0.00 0.00 0.00 48 995.0
20260504011044 8 326 0.0 0.0 0.00 0.00 0.00 45 994.9
20260504010603 8 326 0.0 3.2 0.00 0.00 0.00 43 994.9
20260504010105 8 326 0.0 9.7 0.00 0.00 0.00 42 994.9
20260504005543 8 200 1.6 9.7 0.00 0.00 0.00 43 994.8
20260504005031 8 269 1.6 4.8 0.00 0.00 0.00 43 994.7
20260504004541 8 262 1.6 4.8 0.00 0.00 0.00 42 994.7
20260504004021 8 113 0.0 3.2 0.00 0.00 0.00 42 994.6
20260504003534 8 235 0.0 3.2 0.00 0.00 0.00 42 994.6
20260504003042 8 224 0.0 6.4 0.00 0.00 0.00 41 994.5
20260504002524 8 137 0.0 6.4 0.00 0.00 0.00 42 994.4
20260504002035 9 78 0.0 3.2 0.00 0.00 0.00 41 994.3
20260504001544 10 251 0.0 1.6 0.00 0.00 0.00 40 994.3
20260504001025 10 251 0.0 3.2 0.00 0.00 0.00 38 994.1
20260504000535 10 251 0.0 3.2 0.00 0.00 0.00 36 994.1
20260504000043 11 237 0.0 6.4 0.00 0.00 0.00 36 994.0
20260503235525 11 252 1.6 6.4 0.00 0.00 0.00 35 993.9
20260503235035 11 266 1.6 6.4 0.00 0.00 0.00 35 993.9
20260503234546 11 231 1.6 6.4 0.00 0.00 0.00 33 993.8
20260503234023 11 119 1.6 8.0 0.00 0.00 0.00 32 993.7
20260503233533 11 341 1.6 9.7 0.00 0.00 0.00 32 993.7
20260503233025 11 244 1.6 6.4 0.00 0.00 0.00 31 993.6
20260503232531 12 27 1.6 6.4 0.00 0.00 0.00 28 993.5
20260503232038 12 271 0.0 9.7 0.00 0.00 0.00 28 993.4
20260503231545 12 280 1.6 9.7 0.00 0.00 0.00 27 993.3
20260503231023 12 262 0.0 8.0 0.00 0.00 0.00 26 993.2
20260503230532 13 269 3.2 9.7 0.00 0.00 0.00 25 993.2
20260503230037 13 253 1.6 8.0 0.00 0.00 0.00 26 993.1
20260503225536 14 287 1.6 9.7 0.00 0.00 0.00 25 993.1
20260503225023 14 129 3.2 9.7 0.00 0.00 0.00 24 993.0
20260503224549 15 101 1.6 6.4 0.00 0.00 0.00 24 993.0
20260503224027 15 104 0.0 14.5 0.00 0.00 0.00 27 992.9
20260503223538 15 238 3.2 14.5 0.00 0.00 0.00 25 992.9
20260503223043 15 114 1.6 11.3 0.00 0.00 0.00 27 992.9
20260503222551 15 96 4.8 11.3 0.00 0.00 0.00 26 992.9
20260503222028 15 347 6.4 11.3 0.00 0.00 0.00 26 992.8
20260503221534 15 165 1.6 4.8 0.00 0.00 0.00 29 992.9
20260503221028 15 217 1.6 3.2 0.00 0.00 0.00 30 992.9
20260503220539 15 94 0.0 4.8 0.00 0.00 0.00 31 992.9
20260503220047 15 94 1.6 4.8 0.00 0.00 0.00 30 992.8
20260503215527 15 115 1.6 4.8 0.00 0.00 0.00 29 992.9
20260503215034 15 89 1.6 4.8 0.00 0.00 0.00 28 992.9
20260503214539 16 284 1.6 4.8 0.00 0.00 0.00 28 992.9
20260503214048 15 263 1.6 6.4 0.00 0.00 0.00 29 993.0
20260503213530 15 115 1.6 6.4 0.00 0.00 0.00 29 993.0
20260503213039 15 278 3.2 6.4 0.00 0.00 0.00 30 993.0
20260503212519 15 167 1.6 9.7 0.00 0.00 0.00 31 993.0
20260503212029 15 285 1.6 6.4 0.00 0.00 0.00 32 993.0
20260503211540 15 326 3.2 6.4 0.00 0.00 0.00 31 993.1
20260503211029 15 240 1.6 9.7 0.00 0.00 0.00 31 993.2
20260503210550 15 255 1.6 9.7 0.00 0.00 0.00 33 993.0
20260503210100 14 115 1.6 6.4 0.00 0.00 0.00 34 993.0
20260503205543 14 290 1.6 6.4 0.00 0.00 0.00 35 993.2
20260503205051 14 289 1.6 9.7 0.00 0.00 0.00 34 993.2
20260503204559 13 65 3.2 16.1 0.00 0.00 0.00 33 993.3
20260503204024 13 255 4.8 16.1 0.00 0.00 0.00 32 993.4
20260503203525 13 14 1.6 12.9 0.00 0.00 0.00 37 993.4
20260503203034 13 103 1.6 12.9 0.00 0.00 0.00 38 993.4
20260503202543 12 131 3.2 6.4 0.00 0.00 0.00 36 993.6
20260503202024 12 56 1.6 6.4 0.00 0.00 0.00 37 993.5
20260503201535 12 71 1.6 8.0 0.00 0.00 0.00 36 993.6
20260503201044 12 79 1.6 12.9 0.00 0.00 0.00 37 993.6
20260503200527 12 255 1.6 9.7 0.00 0.00 0.00 38 993.7
20260503200036 12 349 3.2 19.3 0.00 0.00 0.00 40 993.7
20260503195546 12 309 4.8 19.3 0.00 0.00 0.00 38 993.8
20260503195026 11 311 1.6 12.9 0.00 0.00 0.00 38 993.8
20260503194538 11 274 4.8 16.1 0.00 0.00 0.00 37 993.9
20260503194030 12 330 4.8 16.1 0.00 0.00 0.00 37 993.9
20260503193539 12 17 1.6 8.0 0.00 0.00 0.00 38 993.9
20260503193027 12 248 3.2 14.5 0.00 0.00 0.00 38 994.0
20260503192528 12 235 1.6 14.5 0.00 0.00 0.00 39 994.1
20260503192038 12 56 3.2 8.0 0.00 0.00 0.00 38 994.0
20260503191527 11 298 1.6 9.7 0.00 0.00 0.00 40 994.1
20260503191028 12 87 1.6 4.8 0.00 0.00 0.00 38 994.2
20260503190540 12 156 1.6 4.8 0.00 0.00 0.00 41 994.2
20260503190031 11 19 1.6 8.0 0.00 0.00 0.00 43 994.4
20260503185532 11 288 3.2 8.0 0.00 0.00 0.00 41 994.3
20260503185021 11 271 1.6 11.3 0.00 0.00 0.00 41 994.4
20260503184522 11 6 3.2 11.3 0.00 0.00 0.00 40 994.5
20260503184033 11 252 0.0 4.8 0.00 0.00 0.00 43 994.6
20260503183544 11 226 1.6 12.9 0.00 0.00 0.00 40 994.5
20260503183020 11 271 1.6 3.2 0.00 0.00 0.00 42 994.6
20260503182530 11 288 0.0 8.0 0.00 0.00 0.00 43 994.7
20260503182040 11 65 1.6 9.7 0.00 0.00 0.00 43 994.7
20260503181521 11 245 3.2 9.7 0.00 0.00 0.00 44 994.8
20260503181031 11 238 1.6 8.0 0.00 0.00 0.00 42 994.7
20260503180538 11 308 1.6 8.0 0.00 0.00 0.00 41 994.8
20260503180037 11 20 1.6 8.0 0.00 0.00 0.00 43 994.8
20260503175528 10 239 3.2 11.3 0.00 0.00 0.00 42 994.8
20260503175037 10 33 1.6 11.3 0.00 0.00 0.00 41 994.8
20260503174539 10 58 3.2 6.4 0.00 0.00 0.00 42 994.9
20260503174028 10 236 1.6 4.8 0.00 0.00 0.00 44 994.9
20260503173530 10 90 0.0 6.4 0.00 0.00 0.00 43 994.9
20260503173038 10 285 1.6 6.4 0.00 0.00 0.00 43 995.0
20260503172525 10 38 1.6 4.8 0.00 0.00 0.00 45 995.1
20260503172024 10 285 0.0 4.8 0.00 0.00 0.00 43 995.0
20260503171535 10 141 0.0 4.8 0.00 0.00 0.00 44 995.1
20260503171024 10 311 0.0 4.8 0.00 0.00 0.00 45 995.1
20260503170525 10 75 1.6 6.4 0.00 0.00 0.00 43 995.1
20260503150527 10 245 1.6 9.7 0.00 0.00 0.00 50 995.5